Airfield :
LOGIN :

Register | Disclaimer

   EN    FR    IT 

 










Legend :    VFR   Marginal VFR   IFR   Intensive IFR   Very Intensive IFR
Visi :
Ceiling :
>= 8 km
>= 3000ft
5 to 8 km
1000 to 3000 ft
1500m to 5 km
500 to 1000 ft
800 to 1500m
200 to 500 ft
< 800m
< 200 ft
Symbols :   Thunderstorms  Fog  Heavy snow  Heavy precipitations  Wind > 20 kt
SIGMETs :     Misc.  Thunderstorms  Icing  Turbulence  Mountain Waves  Volcanic Ashes






- Airport Elevation : 34 ft
- IATA code : BLK


EGNH - Blackpool

CURRENT METAR :
  • 231820Z 13014KT CAVOK 21/14 Q1014

EXPIRED METARs :
  • 231750Z 12015KT CAVOK 23/14 Q1014
  • 231720Z 12015KT CAVOK 24/14 Q1015
  • 231650Z 11015KT CAVOK 24/15 Q1015
  • 231620Z 12013KT CAVOK 25/15 Q1015
  • 231550Z 11014KT CAVOK 25/15 Q1015

TAF TAF EGNH
Valid from the 23 at 18:00 until the 23 at 20:00 UTC


231653Z 2318/2320 10010KT CAVOK
ATIS : +44 1253 343 434 (x8315)



MET'MAP, your aeronautical weather chart ! - Copyright ORBIFLY December 2007 - Disclaimer

ORBIFLY MET'MAP TEAM :

Programming & Development : Alexandra Zaïnal
Concept & original design : Baudouin d'Aumeries
Assistance for programming : Marc-Olivier Méhu
Technical & hardware support : Manuel Goepfert

Contact : metmap@orbifly.com




SOURCES & CREDITS :

   NOAA